When you browse on this site, cookies collect data to enhance your experience and personalize the content and advertising you see.
Visit our Privacy Policy to learn more. By continuing to use the site, you agree to this use of cookies and data.
  • In Österreich
  • Länderverzeichnis
  • Für 7 Tage
  • Wassertemperatur
  • Satellitenkarten
  • Wetterkarte
  • News
  • Widgets
  • user-avatar
    Anmelden

    Stündliche Wetter Ozernica

    Heute, 17 Juli, Mittwoch

    Zeit Temperatur Niederschläge Wind Luftdruck Luftfeuchtigkeit
    00:00 +12°C° 0 mm 3 m/S 743 mmHg 94%
    01:00 +11°C° 0 mm 3 m/S 743 mmHg 95%
    02:00 +10°C° 0 mm 3 m/S 744 mmHg 96%
    03:00 +10°C° 0 mm 3 m/S 744 mmHg 96%
    04:00 +10°C° 0 mm 3 m/S 744 mmHg 97%
    05:00 +10°C° 0 mm 3 m/S 743 mmHg 98%
    06:00 +11°C° 0 mm 3 m/S 743 mmHg 94%
    07:00 +13°C° 0 mm 3 m/S 743 mmHg 91%
    08:00 +14°C° 0 mm 3 m/S 743 mmHg 88%
    09:00 +16°C° 0.3 mm 3 m/S 743 mmHg 83%
    10:00 +17°C° 0.3 mm 3 m/S 743 mmHg 78%
    11:00 +18°C° 0.3 mm 3 m/S 743 mmHg 74%
    12:00 +18°C° 0.8 mm 4 m/S 743 mmHg 75%
    13:00 +18°C° 0.8 mm 4 m/S 743 mmHg 75%
    14:00 +18°C° 0.8 mm 4 m/S 742 mmHg 76%
    15:00 +18°C° 0.5 mm 4 m/S 742 mmHg 76%
    16:00 +18°C° 0.5 mm 3 m/S 742 mmHg 76%
    17:00 +18°C° 0.5 mm 3 m/S 742 mmHg 76%
    18:00 +17°C° 0.2 mm 3 m/S 742 mmHg 80%
    19:00 +16°C° 0.2 mm 3 m/S 742 mmHg 85%
    20:00 +14°C° 0.2 mm 2 m/S 742 mmHg 89%
    21:00 +14°C° 0 mm 2 m/S 742 mmHg 91%
    22:00 +12°C° 0 mm 3 m/S 743 mmHg 92%
    23:00 +11°C° 0 mm 3 m/S 743 mmHg 94%

    Morgen, 18 Juli, Donnerstag

    Zeit Temperatur Niederschläge Wind Luftdruck Luftfeuchtigkeit
    00:00 +11°C° 0 mm 3 m/S 743 mmHg 95%
    01:00 +11°C° 0 mm 3 m/S 743 mmHg 95%
    02:00 +11°C° 0 mm 3 m/S 743 mmHg 96%
    03:00 +10°C° 0 mm 3 m/S 743 mmHg 96%
    04:00 +10°C° 0 mm 3 m/S 743 mmHg 97%
    05:00 +10°C° 0 mm 4 m/S 743 mmHg 97%
    06:00 +12°C° 0 mm 4 m/S 743 mmHg 96%
    07:00 +13°C° 0 mm 4 m/S 744 mmHg 94%
    08:00 +14°C° 0 mm 5 m/S 744 mmHg 92%
    09:00 +15°C° 0 mm 5 m/S 744 mmHg 89%
    10:00 +15°C° 0 mm 5 m/S 744 mmHg 87%
    11:00 +16°C° 0 mm 5 m/S 744 mmHg 84%
    12:00 +17°C° 0.3 mm 5 m/S 745 mmHg 82%
    13:00 +19°C° 0.3 mm 4 m/S 745 mmHg 79%
    14:00 +20°C° 0.3 mm 4 m/S 745 mmHg 76%
    15:00 +20°C° 0.6 mm 4 m/S 745 mmHg 78%
    16:00 +20°C° 0.6 mm 4 m/S 745 mmHg 80%
    17:00 +20°C° 0.6 mm 4 m/S 745 mmHg 81%
    18:00 +19°C° 0.2 mm 4 m/S 745 mmHg 84%
    19:00 +18°C° 0.2 mm 3 m/S 745 mmHg 87%
    20:00 +17°C° 0.2 mm 3 m/S 745 mmHg 90%
    21:00 +16°C° 0 mm 3 m/S 746 mmHg 91%
    22:00 +14°C° 0 mm 3 m/S 746 mmHg 93%
    23:00 +14°C° 0 mm 3 m/S 747 mmHg 94%

    übermorgen, 19 Juli, Freitag

    Zeit Temperatur Niederschläge Wind Luftdruck Luftfeuchtigkeit
    00:00 +13°C° 0 mm 3 m/S 747 mmHg 95%
    01:00 +13°C° 0 mm 3 m/S 747 mmHg 95%
    02:00 +12°C° 0 mm 3 m/S 747 mmHg 95%
    03:00 +12°C° 0 mm 3 m/S 747 mmHg 95%
    04:00 +12°C° 0 mm 3 m/S 747 mmHg 95%
    05:00 +13°C° 0 mm 2 m/S 748 mmHg 96%
    06:00 +13°C° 0 mm 3 m/S 748 mmHg 92%
    07:00 +16°C° 0 mm 3 m/S 748 mmHg 89%
    08:00 +18°C° 0 mm 3 m/S 748 mmHg 86%
    09:00 +19°C° 0.2 mm 3 m/S 749 mmHg 80%
    10:00 +20°C° 0.2 mm 3 m/S 749 mmHg 74%
    11:00 +22°C° 0.2 mm 3 m/S 749 mmHg 68%
    12:00 +22°C° 0.2 mm 3 m/S 749 mmHg 65%
    13:00 +24°C° 0.2 mm 3 m/S 748 mmHg 61%
    14:00 +25°C° 0.2 mm 4 m/S 748 mmHg 58%
    15:00 +23°C° 0.1 mm 4 m/S 748 mmHg 60%
    16:00 +24°C° 0.1 mm 3 m/S 748 mmHg 63%
    17:00 +24°C° 0.1 mm 3 m/S 748 mmHg 65%
    18:00 +21°C° 0.1 mm 2 m/S 749 mmHg 71%
    19:00 +21°C° 0.1 mm 1 m/S 749 mmHg 77%
    20:00 +19°C° 0.1 mm 1 m/S 749 mmHg 83%
    21:00 +18°C° 0 mm 1 m/S 749 mmHg 84%
    22:00 +18°C° 0 mm 1 m/S 749 mmHg 86%
    23:00 +16°C° 0 mm 1 m/S 750 mmHg 88%

    20 Juli, Samstag

    Zeit Temperatur Niederschläge Wind Luftdruck Luftfeuchtigkeit
    00:00 +15°C° 0 mm 1 m/S 750 mmHg 89%
    01:00 +15°C° 0 mm 1 m/S 750 mmHg 90%
    02:00 +15°C° 0 mm 1 m/S 750 mmHg 91%
    03:00 +15°C° 0 mm 1 m/S 750 mmHg 91%
    04:00 +15°C° 0 mm 1 m/S 750 mmHg 91%
    05:00 +15°C° 0 mm 1 m/S 750 mmHg 92%
    06:00 +16°C° 0 mm 1 m/S 750 mmHg 87%
    07:00 +19°C° 0 mm 1 m/S 751 mmHg 82%
    08:00 +21°C° 0 mm 1 m/S 751 mmHg 78%
    09:00 +22°C° 0.3 mm 1 m/S 751 mmHg 73%
    10:00 +23°C° 0.3 mm 2 m/S 751 mmHg 69%
    11:00 +25°C° 0.3 mm 2 m/S 751 mmHg 64%
    12:00 +25°C° 0.3 mm 2 m/S 751 mmHg 62%
    13:00 +25°C° 0.3 mm 2 m/S 751 mmHg 61%
    14:00 +26°C° 0.3 mm 1 m/S 751 mmHg 59%
    15:00 +26°C° 0.5 mm 1 m/S 751 mmHg 61%
    16:00 +25°C° 0.5 mm 1 m/S 751 mmHg 63%
    17:00 +25°C° 0.5 mm 1 m/S 751 mmHg 65%
    18:00 +24°C° 0.1 mm 1 m/S 751 mmHg 70%
    19:00 +22°C° 0.1 mm 1 m/S 751 mmHg 75%
    20:00 +20°C° 0.1 mm 1 m/S 751 mmHg 80%
    21:00 +19°C° 0 mm 1 m/S 751 mmHg 82%
    22:00 +19°C° 0 mm 1 m/S 752 mmHg 84%
    23:00 +18°C° 0 mm 1 m/S 752 mmHg 86%

    21 Juli, Sonntag

    Zeit Temperatur Niederschläge Wind Luftdruck Luftfeuchtigkeit
    00:00 +15°C° 0 mm 0 m/S 752 mmHg 86%
    01:00 +15°C° 0 mm 0 m/S 752 mmHg 87%
    02:00 +15°C° 0 mm 0 m/S 752 mmHg 87%
    03:00 +15°C° 0 mm 0 m/S 752 mmHg 88%
    04:00 +14°C° 0 mm 0 m/S 752 mmHg 88%
    05:00 +14°C° 0 mm 0 m/S 752 mmHg 88%
    06:00 +16°C° 0 mm 0 m/S 752 mmHg 84%
    07:00 +20°C° 0 mm 1 m/S 752 mmHg 80%
    08:00 +22°C° 0 mm 1 m/S 752 mmHg 75%
    09:00 +23°C° 0 mm 1 m/S 752 mmHg 70%
    10:00 +23°C° 0 mm 0 m/S 752 mmHg 64%
    11:00 +25°C° 0 mm 0 m/S 752 mmHg 58%
    12:00 +25°C° 0 mm 0 m/S 752 mmHg 55%
    13:00 +25°C° 0 mm 0 m/S 752 mmHg 53%
    14:00 +28°C° 0 mm 1 m/S 752 mmHg 50%
    15:00 +28°C° 0 mm 1 m/S 751 mmHg 51%
    16:00 +27°C° 0 mm 1 m/S 751 mmHg 53%
    17:00 +27°C° 0 mm 1 m/S 751 mmHg 54%
    18:00 +25°C° 0 mm 1 m/S 751 mmHg 61%
    19:00 +24°C° 0 mm 1 m/S 751 mmHg 67%
    20:00 +21°C° 0 mm 2 m/S 751 mmHg 73%
    21:00 +20°C° 0 mm 2 m/S 751 mmHg 74%
    22:00 +20°C° 0 mm 2 m/S 751 mmHg 74%
    23:00 +19°C° 0 mm 2 m/S 751 mmHg 74%

    22 Juli, Montag

    Zeit Temperatur Niederschläge Wind Luftdruck Luftfeuchtigkeit
    00:00 +19°C° 0.1 mm 2 m/S 751 mmHg 77%
    01:00 +19°C° 0.1 mm 1 m/S 751 mmHg 80%
    02:00 +19°C° 0.1 mm 1 m/S 751 mmHg 83%
    03:00 +19°C° 0 mm 1 m/S 750 mmHg 83%
    04:00 +19°C° 0 mm 1 m/S 750 mmHg 84%
    05:00 +19°C° 0 mm 1 m/S 750 mmHg 84%
    06:00 +19°C° 0.3 mm 2 m/S 750 mmHg 84%
    07:00 +20°C° 0.3 mm 2 m/S 750 mmHg 83%
    08:00 +21°C° 0.3 mm 2 m/S 750 mmHg 83%
    09:00 +23°C° 0.8 mm 2 m/S 750 mmHg 80%
    10:00 +24°C° 0.8 mm 2 m/S 750 mmHg 77%
    11:00 +25°C° 0.8 mm 3 m/S 750 mmHg 74%
    12:00 +25°C° 0.5 mm 3 m/S 750 mmHg 73%
    13:00 +26°C° 0.5 mm 2 m/S 750 mmHg 71%
    14:00 +26°C° 0.5 mm 2 m/S 750 mmHg 69%
    15:00 +26°C° 0.4 mm 3 m/S 750 mmHg 71%
    16:00 +25°C° 0.4 mm 3 m/S 750 mmHg 73%
    17:00 +25°C° 0.4 mm 3 m/S 749 mmHg 75%
    18:00 +24°C° 0.6 mm 3 m/S 749 mmHg 80%
    19:00 +21°C° 0.6 mm 2 m/S 749 mmHg 84%
    20:00 +20°C° 0.6 mm 2 m/S 749 mmHg 89%
    21:00 +19°C° 0.2 mm 2 m/S 750 mmHg 90%
    22:00 +19°C° 0.2 mm 2 m/S 750 mmHg 91%
    23:00 +18°C° 0.2 mm 2 m/S 750 mmHg 92%
    Mehr zeigen